DW0333 Tranby-Lier NO current weather conditions

sailwx.info

Wind from 329 at 0 knots

Air temperature 8.3° C
Dewpoint 7.0° C

Last reported at 2014-Sep-20 03:49 UTC.
Time now 2014-Sep-20 05:53 UTC

Location: N 59°50' E 010°17'.
View on Google Maps.

See reports from other nearby stations

  
Tides and Currents Weather Stations Pressure Air Temp Water Temp Dewpoint Dewpoint Depression Visibility Wind Speed Wind Dir Waves Ship Positions
date/time (UTC)wind fromknots sea level pressurealtimeterstation pressurevisibilityair tempwater tempwave heightnotes
2014-Sep-20 04:51 360 8.3
2014-Sep-20 04:34 360 8.3
2014-Sep-20 04:19 360 8.3
2014-Sep-20 04:04 360 0 8.9
2014-Sep-20 03:49 329 0 8.3
2014-Sep-20 03:34 330 0 8.3
2014-Sep-20 03:19 332 0 8.3
2014-Sep-20 03:03 117 8.9
2014-Sep-20 02:48 118 8.9
2014-Sep-20 02:32 117 8.9
2014-Sep-20 02:17 117 0 9.4
2014-Sep-20 02:03 118 0 9.4
2014-Sep-20 01:48 118 9.4
2014-Sep-20 01:32 117 0 9.4
2014-Sep-20 01:18 117 0 9.4
2014-Sep-20 01:03 118 10.0
2014-Sep-20 00:48 118 10.0
2014-Sep-20 00:31 118 0 10.0
2014-Sep-20 00:16 118 10.6
2014-Sep-20 00:01 118 0 10.6
2014-Sep-19 23:45 104 1 10.6
2014-Sep-19 23:30 084 0 10.6
2014-Sep-19 23:16 070 0 11.1
2014-Sep-19 23:00 048 1 11.1
2014-Sep-19 22:44 089 1 11.1
2014-Sep-19 22:29 103 1 11.1
2014-Sep-19 22:13 079 1 11.1
2014-Sep-19 21:59 113 1 11.1
2014-Sep-19 21:43 054 1 11.1
2014-Sep-19 21:28 078 1 11.1
2014-Sep-19 21:13 108 1 11.1
2014-Sep-19 20:58 140 0 11.7
2014-Sep-19 20:43 121 0 11.7
2014-Sep-19 20:27 121 0 11.7
2014-Sep-19 20:13 105 1 11.7
2014-Sep-19 19:58 132 0 11.7
2014-Sep-19 19:43 171 0 11.7
2014-Sep-19 19:28 171 0 12.2
2014-Sep-19 19:12 185 12.2
2014-Sep-19 18:58 136 0 12.2
2014-Sep-19 18:43 132 0 12.2
2014-Sep-19 18:27 128 0 12.8
2014-Sep-19 18:11 114 0 12.8
2014-Sep-19 17:54 127 1 12.8
2014-Sep-19 17:41 115 1 13.3
2014-Sep-19 17:25 118 1 13.3
2014-Sep-19 17:10 106 1 13.9
2014-Sep-19 16:54 102 1 13.9
2014-Sep-19 16:39 081 0 14.4
2014-Sep-19 16:23 069 1 15.0
2014-Sep-19 16:09 119 0 15.6
2014-Sep-19 15:54 113 1 16.1
2014-Sep-19 15:37 133 2 16.1
2014-Sep-19 15:22 156 3 16.7
2014-Sep-19 15:07 143 2 17.2
2014-Sep-19 14:52 179 3 17.8
2014-Sep-19 14:38 227 3 17.8
2014-Sep-19 14:22 201 2 17.8
2014-Sep-19 14:08 150 3 17.8
2014-Sep-19 13:53 226 3 17.8
2014-Sep-19 13:37 232 3 18.3
2014-Sep-19 13:21 197 4 18.3
2014-Sep-19 13:06 152 3 18.3
2014-Sep-19 12:52 142 2 18.3
2014-Sep-19 12:38 261 3 18.3
2014-Sep-19 12:20 130 2 17.8
2014-Sep-19 12:05 202 2 17.8
2014-Sep-19 11:49 171 2 17.8
2014-Sep-19 11:34 181 2 17.8
2014-Sep-19 11:19 113 1 17.2
2014-Sep-19 11:04 121 1 17.2
2014-Sep-19 10:48 171 1 17.2
2014-Sep-19 10:34 146 1 16.7
2014-Sep-19 10:18 148 1 16.7
2014-Sep-19 10:03 263 0 16.1
2014-Sep-19 09:48 153 0 15.6
2014-Sep-19 09:32 185 0 15.0
2014-Sep-19 09:17 185 1 15.0
2014-Sep-19 09:03 207 0 14.4
2014-Sep-19 08:47 179 0 13.9
2014-Sep-19 08:33 175 0 13.3
2014-Sep-19 08:16 175 0 12.8
2014-Sep-19 08:01 035 0 12.2
2014-Sep-19 07:46 035 0 11.1
2014-Sep-19 07:31 034 0 10.6
2014-Sep-19 07:16 034 0 10.6
2014-Sep-19 07:01 034 10.0
2014-Sep-19 06:47 034 9.4
2014-Sep-19 06:32 035 9.4
2014-Sep-19 06:15 035 8.9
2014-Sep-19 05:59 034 8.9
2014-Sep-19 05:44 035 8.9
2014-Sep-19 05:29 034 8.9
2014-Sep-19 05:13 035 8.9
2014-Sep-19 04:58 035 0 8.9
2014-Sep-19 04:43 035 0 8.9
2014-Sep-19 04:28 035 0 8.9
2014-Sep-19 04:12 034 1 8.9
2014-Sep-19 03:57 035 2 8.9
2014-Sep-19 03:43 035 1 9.4
2014-Sep-19 03:28 035 0 9.4
2014-Sep-19 03:13 035 0 9.4
2014-Sep-19 02:56 035 0 9.4
2014-Sep-19 02:41 035 0 9.4
2014-Sep-19 02:26 035 0 9.4
2014-Sep-19 02:11 035 9.4
2014-Sep-19 01:56 035 0 9.4
2014-Sep-19 01:41 035 0 9.4
2014-Sep-19 01:25 035 9.4
2014-Sep-19 01:10 035 0 9.4
2014-Sep-19 00:55 035 0 10.0
2014-Sep-19 00:39 035 10.0
2014-Sep-19 00:24 035 10.0
2014-Sep-19 00:08 035 0 10.0
2014-Sep-18 23:54 035 0 10.0
2014-Sep-18 23:39 035 1 9.4
2014-Sep-18 23:24 035 1 9.4
2014-Sep-18 23:08 035 1 9.4
2014-Sep-18 22:53 035 0 9.4
2014-Sep-18 22:38 035 0 10.0
2014-Sep-18 22:22 040 1 9.4
2014-Sep-18 22:08 032 1 9.4
2014-Sep-18 21:53 039 0 9.4
2014-Sep-18 21:37 039 0 9.4
2014-Sep-18 21:23 040 9.4
2014-Sep-18 21:07 040 9.4
2014-Sep-18 20:51 039 0 10.0
2014-Sep-18 20:36 040 0 10.0
2014-Sep-18 20:23 041 0 9.4
2014-Sep-18 20:06 041 0 10.0
2014-Sep-18 19:51 040 0 10.0
2014-Sep-18 19:35 040 0 10.6
2014-Sep-18 19:21 040 0 10.6
2014-Sep-18 19:06 040 0 10.6
2014-Sep-18 18:50 042 0 10.6
2014-Sep-18 18:34 043 0 11.1
2014-Sep-18 18:19 044 1 11.1
2014-Sep-18 18:03 050 1 11.7
2014-Sep-18 17:49 051 0 12.2
2014-Sep-18 17:33 051 0 12.8
2014-Sep-18 17:18 051 0 13.3
2014-Sep-18 17:03 051 0 14.4
2014-Sep-18 16:47 051 0 15.0
2014-Sep-18 16:33 048 0 15.0
2014-Sep-18 16:17 048 0 15.6
2014-Sep-18 16:03 065 1 15.6
2014-Sep-18 15:48 061 0 15.0
2014-Sep-18 15:33 027 0 15.0
2014-Sep-18 15:17 044 0 14.4
2014-Sep-18 15:03 044 0 15.0
2014-Sep-18 14:46 104 0 15.0
2014-Sep-18 14:31 058 0 15.6
2014-Sep-18 14:16 058 0 16.1
2014-Sep-18 14:00 056 1 16.7
2014-Sep-18 13:45 044 2 17.2
2014-Sep-18 13:30 058 1 17.8
2014-Sep-18 13:17 059 2 17.2
2014-Sep-18 12:59 175 1 17.2
2014-Sep-18 12:44 065 2 16.7
2014-Sep-18 12:29 120 2 16.7
2014-Sep-18 12:14 065 1 16.1
2014-Sep-18 11:58 043 2 16.1
2014-Sep-18 11:43 057 1 16.7
2014-Sep-18 11:28 185 1 16.7
2014-Sep-18 11:13 179 1 16.7
2014-Sep-18 10:58 241 1 16.1
2014-Sep-18 10:43 257 2 16.1
2014-Sep-18 10:28 119 1 16.1
2014-Sep-18 10:13 175 1 15.6
2014-Sep-18 09:58 200 1 15.0
2014-Sep-18 09:42 289 0 13.9
2014-Sep-18 09:26 284 1 13.9
2014-Sep-18 09:11 185 0 13.3
2014-Sep-18 08:56 069 0 13.3
2014-Sep-18 08:41 109 0 13.3
2014-Sep-18 08:25 076 0 11.7
2014-Sep-18 08:11 295 1 10.6
2014-Sep-18 07:54 291 1 9.4
2014-Sep-18 07:39 303 0 8.9
2014-Sep-18 07:23 303 0 8.3
2014-Sep-18 07:09 019 0 7.8
2014-Sep-18 06:53 019 0 7.8
2014-Sep-18 06:38 019 7.8
2014-Sep-18 06:23 019 7.8
2014-Sep-18 06:08 019 7.2
2014-Sep-18 05:53 019 7.2
2014-Sep-18 05:38 019 0 7.2
2014-Sep-18 05:23 019 7.2
2014-Sep-18 05:08 019 7.2